• în România
  • Lista ţărilor
  • Pe 7 zile
  • Temperatura apei
  • Hartă satelitară
  • Meteo pe hartă
  • Widget-uri
  • user-avatar
    Intrare

    Meteo pe oră la Elbasan

    Astăzi, 22 Februarie, Miercuri

    Timp Temperatura Precipitaţii Vânt Presiune Umiditate
    00:00 +4°C° 0 mm 1 m/s 737 mmHg 75%
    01:00 +4°C° 0 mm 1 m/s 737 mmHg 73%
    02:00 +4°C° 0 mm 1 m/s 737 mmHg 74%
    03:00 +4°C° 0 mm 1 m/s 737 mmHg 74%
    04:00 +4°C° 0 mm 1 m/s 737 mmHg 75%
    05:00 +4°C° 0 mm 1 m/s 737 mmHg 75%
    06:00 +5°C° 0 mm 1 m/s 737 mmHg 74%
    07:00 +5°C° 0 mm 1 m/s 737 mmHg 74%
    08:00 +7°C° 0 mm 0 m/s 737 mmHg 67%
    09:00 +9°C° 0 mm 0 m/s 738 mmHg 59%
    10:00 +12°C° 0 mm 0 m/s 738 mmHg 51%
    11:00 +14°C° 0 mm 1 m/s 738 mmHg 51%
    12:00 +15°C° 0 mm 1 m/s 738 mmHg 51%
    13:00 +15°C° 0 mm 1 m/s 737 mmHg 50%
    14:00 +15°C° 0 mm 1 m/s 737 mmHg 56%
    15:00 +14°C° 0 mm 1 m/s 737 mmHg 62%
    16:00 +13°C° 0 mm 1 m/s 737 mmHg 68%
    17:00 +11°C° 0 mm 1 m/s 737 mmHg 76%
    18:00 +9°C° 0 mm 1 m/s 737 mmHg 83%
    19:00 +6°C° 0 mm 0 m/s 737 mmHg 91%
    20:00 +7°C° 0 mm 1 m/s 737 mmHg 91%
    21:00 +7°C° 0 mm 1 m/s 737 mmHg 92%
    22:00 +7°C° 0 mm 1 m/s 737 mmHg 92%
    23:00 +7°C° 0 mm 1 m/s 738 mmHg 92%

    Mâine, 23 Februarie, Joi

    Timp Temperatura Precipitaţii Vânt Presiune Umiditate
    00:00 +6°C° 0 mm 1 m/s 738 mmHg 92%
    01:00 +6°C° 0 mm 1 m/s 738 mmHg 92%
    02:00 +6°C° 0 mm 1 m/s 738 mmHg 92%
    03:00 +6°C° 0 mm 1 m/s 737 mmHg 92%
    04:00 +6°C° 0 mm 1 m/s 737 mmHg 91%
    05:00 +6°C° 0 mm 1 m/s 737 mmHg 90%
    06:00 +6°C° 0 mm 1 m/s 737 mmHg 88%
    07:00 +6°C° 0 mm 1 m/s 738 mmHg 87%
    08:00 +9°C° 0 mm 1 m/s 738 mmHg 77%
    09:00 +11°C° 0 mm 1 m/s 738 mmHg 66%
    10:00 +14°C° 0 mm 1 m/s 738 mmHg 56%
    11:00 +14°C° 0 mm 1 m/s 737 mmHg 54%
    12:00 +15°C° 0 mm 2 m/s 737 mmHg 52%
    13:00 +15°C° 0 mm 2 m/s 737 mmHg 50%
    14:00 +15°C° 0 mm 2 m/s 737 mmHg 54%
    15:00 +14°C° 0 mm 2 m/s 736 mmHg 59%
    16:00 +14°C° 0 mm 2 m/s 736 mmHg 63%
    17:00 +12°C° 0 mm 2 m/s 736 mmHg 71%
    18:00 +9°C° 0 mm 2 m/s 736 mmHg 80%
    19:00 +8°C° 0 mm 1 m/s 737 mmHg 88%
    20:00 +8°C° 0 mm 1 m/s 737 mmHg 89%
    21:00 +6°C° 0 mm 2 m/s 737 mmHg 91%
    22:00 +6°C° 0 mm 2 m/s 737 mmHg 92%
    23:00 +6°C° 0 mm 2 m/s 737 mmHg 92%

    Poimâine, 24 Februarie, Vineri

    Timp Temperatura Precipitaţii Vânt Presiune Umiditate
    00:00 +6°C° 0 mm 2 m/s 737 mmHg 93%
    01:00 +6°C° 0 mm 2 m/s 737 mmHg 93%
    02:00 +6°C° 0 mm 2 m/s 736 mmHg 93%
    03:00 +6°C° 0 mm 2 m/s 736 mmHg 93%
    04:00 +6°C° 0 mm 2 m/s 736 mmHg 92%
    05:00 +6°C° 0 mm 2 m/s 736 mmHg 92%
    06:00 +6°C° 0 mm 2 m/s 736 mmHg 91%
    07:00 +6°C° 0 mm 2 m/s 736 mmHg 91%
    08:00 +9°C° 0 mm 2 m/s 736 mmHg 83%
    09:00 +12°C° 0 mm 2 m/s 736 mmHg 76%
    10:00 +14°C° 0 mm 2 m/s 736 mmHg 68%
    11:00 +14°C° 0 mm 3 m/s 736 mmHg 65%
    12:00 +16°C° 0 mm 3 m/s 735 mmHg 61%
    13:00 +17°C° 0 mm 3 m/s 735 mmHg 57%
    14:00 +16°C° 0 mm 3 m/s 735 mmHg 61%
    15:00 +16°C° 0 mm 3 m/s 734 mmHg 64%
    16:00 +16°C° 0 mm 3 m/s 734 mmHg 68%
    17:00 +13°C° 0 mm 3 m/s 734 mmHg 75%
    18:00 +11°C° 0 mm 3 m/s 734 mmHg 81%
    19:00 +10°C° 0 mm 3 m/s 734 mmHg 88%
    20:00 +10°C° 0 mm 4 m/s 734 mmHg 88%
    21:00 +8°C° 0 mm 4 m/s 734 mmHg 87%
    22:00 +8°C° 0 mm 4 m/s 734 mmHg 87%
    23:00 +8°C° 0,2 mm 4 m/s 734 mmHg 85%

    25 Februarie, Sâmbătă

    Timp Temperatura Precipitaţii Vânt Presiune Umiditate
    00:00 +9°C° 0,2 mm 3 m/s 733 mmHg 83%
    01:00 +10°C° 0,2 mm 3 m/s 733 mmHg 81%
    02:00 +10°C° 0,3 mm 3 m/s 733 mmHg 81%
    03:00 +10°C° 0,3 mm 3 m/s 732 mmHg 82%
    04:00 +10°C° 0,3 mm 3 m/s 732 mmHg 82%
    05:00 +10°C° 1 mm 3 m/s 732 mmHg 84%
    06:00 +10°C° 1 mm 3 m/s 732 mmHg 86%
    07:00 +10°C° 1 mm 3 m/s 733 mmHg 88%
    08:00 +11°C° 1 mm 3 m/s 733 mmHg 87%
    09:00 +12°C° 1 mm 3 m/s 733 mmHg 86%
    10:00 +13°C° 1 mm 2 m/s 733 mmHg 86%
    11:00 +14°C° 0,6 mm 2 m/s 733 mmHg 83%
    12:00 +15°C° 0,6 mm 2 m/s 734 mmHg 81%
    13:00 +15°C° 0,6 mm 2 m/s 734 mmHg 79%
    14:00 +15°C° 0,7 mm 2 m/s 734 mmHg 80%
    15:00 +13°C° 0,7 mm 3 m/s 734 mmHg 81%
    16:00 +13°C° 0,7 mm 3 m/s 734 mmHg 82%
    17:00 +12°C° 0,7 mm 3 m/s 735 mmHg 84%
    18:00 +11°C° 0,7 mm 3 m/s 735 mmHg 86%
    19:00 +10°C° 0,7 mm 3 m/s 736 mmHg 88%
    20:00 +9°C° 0,4 mm 3 m/s 736 mmHg 87%
    21:00 +9°C° 0,4 mm 3 m/s 736 mmHg 87%
    22:00 +8°C° 0,4 mm 3 m/s 737 mmHg 86%
    23:00 +8°C° 0,3 mm 3 m/s 737 mmHg 87%

    26 Februarie, Duminică

    Timp Temperatura Precipitaţii Vânt Presiune Umiditate
    00:00 +8°C° 0,3 mm 3 m/s 737 mmHg 87%
    01:00 +8°C° 0,3 mm 2 m/s 737 mmHg 88%
    02:00 +7°C° 0,1 mm 2 m/s 737 mmHg 88%
    03:00 +7°C° 0,1 mm 2 m/s 737 mmHg 88%
    04:00 +7°C° 0,1 mm 2 m/s 737 mmHg 89%
    05:00 +7°C° 0 mm 2 m/s 737 mmHg 88%
    06:00 +7°C° 0 mm 2 m/s 738 mmHg 88%
    07:00 +7°C° 0 mm 2 m/s 738 mmHg 87%
    08:00 +9°C° 0 mm 2 m/s 738 mmHg 82%
    09:00 +12°C° 0 mm 1 m/s 738 mmHg 76%
    10:00 +14°C° 0 mm 1 m/s 739 mmHg 70%
    11:00 +15°C° 0 mm 1 m/s 738 mmHg 68%
    12:00 +16°C° 0 mm 1 m/s 738 mmHg 65%
    13:00 +18°C° 0 mm 1 m/s 738 mmHg 62%
    14:00 +18°C° 0,1 mm 1 m/s 738 mmHg 66%
    15:00 +16°C° 0,1 mm 1 m/s 737 mmHg 69%
    16:00 +16°C° 0,1 mm 2 m/s 737 mmHg 73%
    17:00 +14°C° 0 mm 1 m/s 737 mmHg 79%
    18:00 +12°C° 0 mm 1 m/s 737 mmHg 85%
    19:00 +11°C° 0 mm 1 m/s 738 mmHg 91%
    20:00 +10°C° 0 mm 1 m/s 738 mmHg 92%
    21:00 +10°C° 0 mm 1 m/s 738 mmHg 92%
    22:00 +8°C° 0 mm 0 m/s 738 mmHg 92%
    23:00 +8°C° 0 mm 0 m/s 738 mmHg 92%

    27 Februarie, Luni

    Timp Temperatura Precipitaţii Vânt Presiune Umiditate
    00:00 +8°C° 0 mm 0 m/s 738 mmHg 92%
    01:00 +7°C° 0 mm 0 m/s 738 mmHg 92%
    02:00 +7°C° 0 mm 0 m/s 738 mmHg 92%
    03:00 +7°C° 0 mm 0 m/s 737 mmHg 92%
    04:00 +8°C° 0 mm 1 m/s 737 mmHg 92%
    05:00 +8°C° 0 mm 1 m/s 738 mmHg 92%
    06:00 +8°C° 0 mm 1 m/s 738 mmHg 92%
    07:00 +9°C° 0 mm 1 m/s 738 mmHg 92%
    08:00 +11°C° 0 mm 1 m/s 739 mmHg 83%
    09:00 +14°C° 0 mm 1 m/s 739 mmHg 74%
    10:00 +16°C° 0 mm 1 m/s 739 mmHg 66%
    11:00 +18°C° 0 mm 1 m/s 739 mmHg 63%
    12:00 +19°C° 0 mm 1 m/s 738 mmHg 60%
    13:00 +18°C° 0 mm 2 m/s 738 mmHg 58%
    14:00 +18°C° 0 mm 2 m/s 738 mmHg 61%
    15:00 +17°C° 0 mm 2 m/s 738 mmHg 65%
    16:00 +17°C° 0 mm 2 m/s 738 mmHg 68%
    17:00 +15°C° 0 mm 2 m/s 738 mmHg 76%
    18:00 +13°C° 0 mm 1 m/s 738 mmHg 84%
    19:00 +11°C° 0 mm 1 m/s 738 mmHg 91%
    20:00 +10°C° 0 mm 1 m/s 738 mmHg 91%
    21:00 +10°C° 0 mm 1 m/s 738 mmHg 91%
    22:00 +10°C° 0 mm 1 m/s 738 mmHg 91%
    23:00 +9°C° 0 mm 1 m/s 738 mmHg 91%
    Arată mai mult